Pila Airport

Jump to: basic info | weather | runways | comments

Related pages: nearby airports | nearby navaids | notams | map

Basic information (top)

Codes: EPPI
Location: lon 53.169998, lat 16.712500, elev 259 ft / 79 m msl
Status: small_airport

Weather (top)

Current conditions for Poznań-Ławica Airport 45nm (84km) S (rec'd 2014/10/24 16:30Z):

EPPO 241630Z 11009KT CAVOK 06/01 Q1026

Airport forecast for Poznań-Ławica Airport 45nm (84km) S (rec'd 2014/10/24 12:33Z):

TAF EPPO 241130Z 2412/2512 13007KT CAVOK PROB30 2505/2511 BKN010

Runways (top)

03/21: 7,876 x 195 ft (2,401 x 59 m) — other (PEM) — lighted

Latest comments (top)

No comments yet for Pila Airport

More... (top)

See also NOTAMs and nearby airports and navaids, or visit the Pila Airport page at the main OurAirports website..